Volver al catálogo

COSMOS 970 DEB

ActivoLEO
NORAD 64982·DEBRIS·🇷🇺 Russia

Lanzado Dec 21, 1977 desde Baikonur Cosmodrome

Loading…

Próximos Pases (próximas 24 horas)

TLE

EnvejeciendoSource: Space-Track

Época: Sep 9, 2026, 08:48 UTC

1 64982U 77121CT  26252.36700411  .00000501  00000-0  67557-3 0  9995
2 64982  65.7425 151.5557 0047260 201.1545 271.1019 13.68152823637495

Sigue COSMOS 970 DEB en tiempo real con AllMySat

Download on the App Store